COSMOS 2251 DEB

Satellite information

Favourite Embed

Satellite Type and Status

DEBRISIN ORBIT

Key statistics

Satellite COSMOS 2251 DEB at a glance.

Uptime

11649

Days in orbit

Revolutions

≈ 14.5

Per day

Orbit

LEO

Low Earth Orbit

Inclination

74.0

Latest

Satellite identification and parameters

Extended collection of information and parameters for COSMOS 2251 DEB.

Object identification

Identified? True

Debris? True

Object name: COSMOS 2251 DEB

International designator: 1993-036DS

Object number (NORAD): 33913

Object ID (CCSDS): 33913

Country: COMMONWEALTH OF INDEPENDENT STATES (CIS)

Current information (Y/N): Y

RCS size: SMALL

Orbital parameters

Period: 99.482 minutes

Inclination: 74.035 deg

SMA: 7111.975 km

Apoapsis: 768.419 km

Periapsis: 699.262 km

RAAN: 233.6194 deg

Eccentricy: 0.004862

Argument of periapsis: 29.5381 deg

Mean anomaly: 90.3809 deg

Mean motion: 14.47496092 rev/day

Mean motion (dot): 0.00002038 rev/day2

B* drag term: 0.0005539 1/REarth

Two-line elements (TLE)

Creation date: May 8, 2025, 3:01 a.m.

Reference frame: TEME

Reference center: EARTH

Epoch: May 7, 2025, 4:56 p.m. UTC

TLE line 0: 0 COSMOS 2251 DEB

TLE line 1: 1 33913U 93036DS 25127.70600916 .00002038 00000-0 55390-3 0 9994

TLE line 2: 2 33913 74.0350 233.6194 0048620 29.5381 90.3809 14.47496092852871

Live tracking on map

Real-time ground track for satellite COSMOS 2251 DEB.

In-orbit conjunctions

A list of the most updated potential collisions computed for object COSMOS 2251 DEB.

Target Orbit TCA Probability of collision Miss distance Type
MONITOR-E/SL-19 SSO 2024-12-10 12:00:13 0.0002816259 217.0 (m) PAYLOAD

Associated space launch

Military communications satellite. Destroyed in a collision with Iridium 33.

COSMOS 2251 DEB was lifted into orbit during the mission ‘Kosmos-3M | Strela-2M 51’, on board a Kosmos-3M space rocket.

The launch took place on June 16, 1993, 4:17 a.m. from 132/1 (132L).

For more information about the launch, click the button.

Launch to space Kosmos-3M | Strela-2M 51
Kosmos-3M | Strela-2M 51

Agency: N/A

Status: Launch Successful

Launch date: June 16, 1993, 4:17 a.m. UTC

Rocket: Kosmos-3M

Launch pad: 132/1 (132L)

Location: Plesetsk Cosmodrome, Russian Federation

...

Latest news about this satellite

There are no fresh news available about this satellite. Check back as we update our databases every day.


Newsletter sign-up

Weekly statistics, charts and insights to help you stay on top of the space industry.